LPA3101 UWWW-UUBW

Flight info

Callsign LPA3101
Flight time N/A
Altitude 36000
Route REDMI T750 OKSUD T787 URAGO URAGO2B
Aircraft A319/M-SDE3FGHIRWY/LB1

Departure

Time N/A
Airport Kurumoch International Airport (UWWW)

Arrival

Time 2026-04-30 19:31
Airport Zhukovsky International Airport (UUBW)
Time Latitude Longitude Altitude Speed Heading
2026-04-30 18:22 53.89130 49.23914 11230 ft 291 kts 296°
2026-04-30 18:22 53.90104 49.20848 12027 ft 295 kts 295°
2026-04-30 18:23 53.91081 49.17768 12816 ft 298 kts 295°
2026-04-30 18:23 53.92053 49.14697 13568 ft 301 kts 295°
2026-04-30 18:23 53.93046 49.11551 14317 ft 304 kts 295°
2026-04-30 18:23 53.94048 49.08368 15038 ft 307 kts 294°
2026-04-30 18:24 53.96245 49.02025 16422 ft 316 kts 298°
2026-04-30 18:24 53.97462 48.98888 17095 ft 320 kts 299°
2026-04-30 18:24 53.98709 48.95730 17750 ft 323 kts 299°
2026-04-30 18:25 53.99965 48.92539 18390 ft 327 kts 298°
2026-04-30 18:25 54.02480 48.86043 19711 ft 330 kts 297°
2026-04-30 18:25 54.03732 48.82752 20343 ft 332 kts 296°
2026-04-30 18:26 54.06232 48.76138 21536 ft 337 kts 296°
2026-04-30 18:26 54.07502 48.72769 22118 ft 340 kts 295°
2026-04-30 18:26 54.08782 48.69373 22696 ft 342 kts 295°
2026-04-30 18:27 54.11373 48.62516 23790 ft 346 kts 295°
2026-04-30 18:27 54.12678 48.59051 24324 ft 349 kts 295°
2026-04-30 18:28 54.15315 48.52020 25279 ft 355 kts 294°
2026-04-30 18:28 54.16652 48.48442 25710 ft 360 kts 294°
2026-04-30 18:28 54.19354 48.41203 26568 ft 368 kts 294°
2026-04-30 18:29 54.20736 48.37499 26990 ft 372 kts 295°
2026-04-30 18:29 54.24961 48.26151 28225 ft 383 kts 294°
2026-04-30 18:30 54.27804 48.18383 29002 ft 388 kts 293°
2026-04-30 18:30 54.30597 48.10377 29721 ft 395 kts 292°
2026-04-30 18:31 54.31997 48.06316 30085 ft 397 kts 293°
2026-04-30 18:31 54.34828 47.98105 30768 ft 404 kts 293°
2026-04-30 18:32 54.37690 47.89827 31463 ft 408 kts 294°
2026-04-30 18:32 54.39144 47.85627 31784 ft 411 kts 294°
2026-04-30 18:32 54.42078 47.77138 32418 ft 416 kts 294°
2026-04-30 18:33 54.43555 47.72850 32721 ft 418 kts 295°
2026-04-30 18:33 54.46525 47.64196 33312 ft 423 kts 295°
2026-04-30 18:33 54.48016 47.59825 33584 ft 425 kts 295°
2026-04-30 18:34 54.49497 47.55480 33860 ft 427 kts 295°
2026-04-30 18:34 54.52519 47.46618 34355 ft 432 kts 295°
2026-04-30 18:34 54.54035 47.42149 34603 ft 433 kts 295°
2026-04-30 18:35 54.55554 47.37657 34824 ft 435 kts 295°
2026-04-30 18:35 54.57083 47.33132 35048 ft 437 kts 295°
2026-04-30 18:35 54.58616 47.28597 35263 ft 439 kts 295°
2026-04-30 18:36 54.61703 47.19445 35658 ft 443 kts 296°
2026-04-30 18:36 54.63252 47.14833 35843 ft 445 kts 296°
2026-04-30 18:36 54.66360 47.05542 36112 ft 448 kts 296°
2026-04-30 18:37 54.67916 47.00879 36125 ft 448 kts 296°
2026-04-30 18:37 54.70961 46.91583 36126 ft 447 kts 295°
2026-04-30 18:38 54.73979 46.82186 36132 ft 447 kts 295°
2026-04-30 18:38 54.76990 46.72772 36127 ft 447 kts 295°
2026-04-30 18:39 54.80005 46.63361 36123 ft 447 kts 295°
2026-04-30 18:39 54.83425 46.54318 36134 ft 452 kts 304°
2026-04-30 18:40 54.87298 46.45829 36130 ft 452 kts 304°
2026-04-30 18:40 54.91180 46.37256 36132 ft 451 kts 304°
2026-04-30 18:41 54.95056 46.28682 36125 ft 451 kts 304°
2026-04-30 18:41 54.98932 46.20074 36128 ft 451 kts 304°
2026-04-30 18:42 55.02794 46.11463 36136 ft 451 kts 304°
2026-04-30 18:42 55.08543 45.98557 36143 ft 451 kts 304°
2026-04-30 18:45 55.29586 45.50869 36131 ft 450 kts 304°
2026-04-30 18:46 55.33390 45.42129 36139 ft 450 kts 304°
2026-04-30 18:46 55.37192 45.33388 36140 ft 450 kts 304°
2026-04-30 18:47 55.40983 45.24632 36143 ft 450 kts 304°
2026-04-30 18:47 55.44740 45.15919 36146 ft 450 kts 304°
2026-04-30 18:48 55.48519 45.07121 36147 ft 450 kts 304°
2026-04-30 18:48 55.52290 44.98323 36146 ft 449 kts 304°
2026-04-30 18:49 55.55673 44.89121 36146 ft 445 kts 291°
2026-04-30 18:49 55.57173 44.78664 36146 ft 438 kts 271°
2026-04-30 18:50 55.57449 44.67980 36157 ft 438 kts 270°
2026-04-30 18:50 55.57727 44.57221 36155 ft 439 kts 270°
2026-04-30 18:51 55.57998 44.46456 36155 ft 439 kts 270°
2026-04-30 18:51 55.58252 44.35682 36156 ft 439 kts 270°
2026-04-30 18:52 55.58503 44.24903 36155 ft 439 kts 270°
2026-04-30 18:52 55.58740 44.14192 36155 ft 439 kts 270°
2026-04-30 18:53 55.58962 44.03402 36155 ft 439 kts 270°
2026-04-30 18:53 55.59176 43.92615 36155 ft 439 kts 270°
2026-04-30 18:54 55.59383 43.81819 36156 ft 439 kts 270°
2026-04-30 18:54 55.59533 43.71023 36159 ft 439 kts 269°
2026-04-30 18:55 55.59557 43.60281 36165 ft 440 kts 268°
2026-04-30 18:55 55.59547 43.44061 36165 ft 439 kts 269°
2026-04-30 18:56 55.59556 43.27847 36165 ft 440 kts 269°
2026-04-30 18:57 55.59555 43.11681 36165 ft 440 kts 269°
2026-04-30 18:57 55.59540 43.00857 36163 ft 441 kts 269°
2026-04-30 18:58 55.59500 42.84592 36164 ft 441 kts 269°
2026-04-30 18:59 55.59434 42.68310 36166 ft 442 kts 269°
2026-04-30 19:00 55.59301 42.46646 36102 ft 443 kts 269°
2026-04-30 19:00 55.59235 42.35800 35596 ft 439 kts 269°
2026-04-30 19:01 55.59155 42.25089 35096 ft 434 kts 269°
2026-04-30 19:01 55.59109 42.19760 34844 ft 431 kts 269°
2026-04-30 19:02 55.59006 42.09225 34343 ft 426 kts 268°
2026-04-30 19:02 55.58909 41.98873 33845 ft 421 kts 268°
2026-04-30 19:03 55.58798 41.88557 33345 ft 417 kts 268°
2026-04-30 19:03 55.58679 41.78378 32716 ft 410 kts 268°
2026-04-30 19:04 55.58551 41.68356 31788 ft 405 kts 268°
2026-04-30 19:04 55.58420 41.58560 30886 ft 398 kts 268°
2026-04-30 19:05 55.58277 41.48868 30016 ft 391 kts 268°
2026-04-30 19:05 55.58134 41.39363 29194 ft 384 kts 268°
2026-04-30 19:06 55.57986 41.30000 28392 ft 378 kts 268°
2026-04-30 19:06 55.57913 41.25435 27999 ft 375 kts 268°
2026-04-30 19:06 55.57759 41.16289 27213 ft 369 kts 267°
2026-04-30 19:07 55.57601 41.07287 26413 ft 364 kts 267°
2026-04-30 19:07 55.57522 41.02838 26013 ft 360 kts 267°
2026-04-30 19:08 55.57355 40.94044 25185 ft 355 kts 267°
2026-04-30 19:08 55.57183 40.85396 24341 ft 350 kts 266°
2026-04-30 19:08 55.57096 40.81122 23922 ft 347 kts 266°
2026-04-30 19:09 55.56921 40.72728 23094 ft 341 kts 266°
2026-04-30 19:09 55.56831 40.68552 22694 ft 339 kts 266°
2026-04-30 19:09 55.56740 40.64406 22287 ft 337 kts 266°
2026-04-30 19:10 55.56550 40.56190 21498 ft 332 kts 266°
2026-04-30 19:10 55.56361 40.48085 20726 ft 328 kts 266°
2026-04-30 19:11 55.56269 40.44127 20348 ft 326 kts 266°
2026-04-30 19:11 55.56067 40.36178 19594 ft 322 kts 266°
2026-04-30 19:11 55.55960 40.32233 19219 ft 320 kts 266°
2026-04-30 19:12 55.55850 40.28317 18851 ft 318 kts 266°
2026-04-30 19:12 55.55738 40.24427 18480 ft 316 kts 266°
2026-04-30 19:12 55.55626 40.20552 18116 ft 315 kts 266°
2026-04-30 19:13 55.55400 40.12854 17398 ft 312 kts 266°
2026-04-30 19:13 55.55171 40.05290 16709 ft 309 kts 266°
2026-04-30 19:13 55.55056 40.01504 16360 ft 308 kts 267°
2026-04-30 19:14 55.55119 39.97722 16196 ft 309 kts 276°
2026-04-30 19:14 55.55334 39.93947 16199 ft 310 kts 276°
2026-04-30 19:14 55.55543 39.90143 15795 ft 312 kts 275°
2026-04-30 19:14 55.55745 39.86330 15411 ft 312 kts 275°
2026-04-30 19:15 55.55945 39.82527 15066 ft 310 kts 275°
2026-04-30 19:15 55.56344 39.74979 14374 ft 307 kts 276°
2026-04-30 19:15 55.56541 39.71238 14032 ft 305 kts 275°
2026-04-30 19:16 55.56735 39.67506 13688 ft 304 kts 275°
2026-04-30 19:16 55.56924 39.63803 13352 ft 302 kts 276°
2026-04-30 19:16 55.57296 39.56504 12667 ft 299 kts 275°
2026-04-30 19:17 55.57108 39.52918 12539 ft 290 kts 255°
2026-04-30 19:17 55.55952 39.46377 12396 ft 270 kts 253°
2026-04-30 19:17 55.55382 39.43211 12350 ft 271 kts 253°
2026-04-30 19:18 55.54427 39.37936 12249 ft 271 kts 253°
2026-04-30 19:18 55.53656 39.33696 12178 ft 271 kts 253°
2026-04-30 19:18 55.53078 39.30531 12109 ft 271 kts 253°
2026-04-30 19:19 55.52501 39.27369 12050 ft 271 kts 253°
2026-04-30 19:19 55.51932 39.24251 11984 ft 271 kts 253°
2026-04-30 19:19 55.50778 39.17949 11869 ft 270 kts 253°
2026-04-30 19:20 55.50200 39.14799 11810 ft 269 kts 253°
2026-04-30 19:20 55.49621 39.11651 11657 ft 270 kts 253°
2026-04-30 19:20 55.48461 39.05388 11033 ft 268 kts 253°
2026-04-30 19:21 55.47880 39.02265 10691 ft 268 kts 253°
2026-04-30 19:21 55.46719 38.96026 9875 ft 272 kts 253°
2026-04-30 19:22 55.45537 38.89693 9084 ft 273 kts 253°
2026-04-30 19:22 55.43765 38.80217 7967 ft 269 kts 253°
2026-04-30 19:23 55.42015 38.70879 6802 ft 266 kts 253°
2026-04-30 19:24 55.40854 38.64734 6040 ft 263 kts 253°
2026-04-30 19:24 55.40281 38.61724 5626 ft 263 kts 253°
2026-04-30 19:24 55.39127 38.55662 4822 ft 260 kts 253°
2026-04-30 19:25 55.39413 38.46724 3927 ft 248 kts 302°
2026-04-30 19:26 55.41445 38.42277 3738 ft 220 kts 314°
2026-04-30 19:26 55.43410 38.38443 3368 ft 209 kts 313°
2026-04-30 19:26 55.44378 38.36540 3101 ft 208 kts 313°
2026-04-30 19:27 55.46301 38.32756 2550 ft 207 kts 313°
2026-04-30 19:27 55.48214 38.28984 2002 ft 206 kts 312°
2026-04-30 19:28 55.49165 38.27106 1729 ft 205 kts 311°
2026-04-30 19:28 55.51049 38.23379 1189 ft 201 kts 311°
2026-04-30 19:29 55.52809 38.19896 682 ft 180 kts 311°
2026-04-30 19:29 55.53595 38.18339 456 ft 159 kts 311°
2026-04-30 19:30 55.55155 38.15229 395 ft 88 kts 311°
2026-04-30 19:30 55.55946 38.13662 399 ft 86 kts 311°
2026-04-30 19:31 55.56213 38.12942 398 ft 8 kts 198°
2026-04-30 19:31 55.56195 38.12926 399 ft 0 kts 211°
2026-04-30 19:31 55.56113 38.12738 396 ft 15 kts 272°
2026-04-30 19:32 55.56171 38.12581 399 ft 16 kts 314°
2026-04-30 19:32 55.56250 38.12431 399 ft 17 kts 312°
2026-04-30 19:32 55.56333 38.12269 397 ft 18 kts 310°
2026-04-30 19:32 55.56345 38.12138 399 ft 11 kts 226°
2026-04-30 19:33 55.56326 38.12106 399 ft 0 kts 222°